QPF
0.01 0.01 0.01 0.02 0.02 0.02 0.03 0.02 0.03 0.04 0.04 0.04 0.04 0.03 0.04 0.03 0.03 0.03 0.02 0.03 0.03 0.04 0.06 0.06 0.05 0.05 0.04 0.04 0.04 0.03 0.02 0.02 0.03 0.08 0.17 0.16 0.10 0.05 0.04 0.03 0.02 0.02 0.02
0.00 0.01 0.01 0.01 0.02 0.02 0.03 0.03 0.02 0.03 0.04 0.04 0.04 0.04 0.03 0.03 0.04 0.03 0.03 0.02 0.01 0.03 0.04 0.05 0.07 0.08 0.07 0.05 0.04 0.02 0.01 0.01 0.02 0.04 0.06 0.07 0.07 0.04 0.04 0.03 0.03 0.02 0.02
0.00 0.01 0.01 0.01 0.01 0.01 0.02 0.02 0.02 0.03 0.03 0.04 0.04 0.05 0.04 0.04 0.03 0.03 0.04 0.05 0.03 0.01 0.02 0.03 0.05 0.07 0.08 0.06 0.04 0.03 0.02 0.02 0.04 0.04 0.03 0.03 0.03 0.04 0.04 0.05 0.04 0.02 0.02
0.00 0.00 0.01 0.01 0.01 0.01 0.02 0.02 0.02 0.03 0.04 0.05 0.05 0.04 0.03 0.03 0.02 0.03 0.05 0.07 0.06 0.03 0.02 0.02 0.03 0.04 0.05 0.06 0.05 0.03 0.02 0.04 0.04 0.03 0.03 0.03 0.03 0.04 0.05 0.03 0.03 0.03 0.03
0.00 0.00 0.01 0.02 0.01 0.02 0.03 0.03 0.03 0.05 0.05 0.05 0.03 0.04 0.03 0.03 0.04 0.07 0.11 0.07 0.05 0.05 0.03 0.02 0.02 0.05 0.06 0.06 0.04 0.03 0.04 0.03 0.02 0.02 0.02 0.02 0.03 0.03 0.03 0.02 0.02 0.02 0.03
0.00 0.00 0.01 0.01 0.02 0.02 0.03 0.02 0.04 0.06 0.05 0.04 0.03 0.04 0.03 0.04 0.04 0.07 0.09 0.06 0.04 0.03 0.02 0.01 0.02 0.04 0.08 0.10 0.07 0.03 0.03 0.03 0.02 0.02 0.02 0.02 0.02 0.02 0.02 0.02 0.02 0.02 0.02
0.00 0.00 0.01 0.01 0.02 0.02 0.01 0.01 0.03 0.05 0.05 0.04 0.05 0.05 0.05 0.04 0.05 0.05 0.06 0.06 0.05 0.04 0.01 0.01 0.01 0.02 0.03 0.05 0.04 0.03 0.03 0.03 0.03 0.03 0.02 0.02 0.02 0.02 0.02 0.02 0.02 0.02 0.02
0.00 0.00 0.01 0.01 0.01 0.01 0.01 0.01 0.02 0.04 0.06 0.05 0.06 0.07 0.06 0.05 0.05 0.04 0.04 0.04 0.05 0.06 0.03 0.02 0.01 0.01 0.02 0.03 0.03 0.05 0.06 0.04 0.09 0.12 0.05 0.03 0.03 0.03 0.03 0.03 0.03 0.02 0.01
0.00 0.01 0.01 0.01 0.01 0.01 0.02 0.01 0.02 0.04 0.07 0.05 0.04 0.07 0.08 0.05 0.05 0.03 0.02 0.01 0.02 0.03 0.02 0.01 0.01 0.01 0.01 0.02 0.04 0.07 0.07 0.05 0.10 0.10 0.05 0.04 0.04 0.05 0.05 0.04 0.03 0.02 0.02
0.00 0.00 0.01 0.01 0.01 0.01 0.01 0.01 0.02 0.04 0.06 0.07 0.05 0.04 0.04 0.03 0.04 0.03 0.03 0.03 0.03 0.03 0.01 0.01 0.01 0.01 0.01 0.02 0.03 0.05 0.05 0.03 0.04 0.04 0.04 0.04 0.08 0.11 0.08 0.05 0.03 0.03 0.02
0.01 0.00 0.00 0.01 0.01 0.01 0.00 0.01 0.03 0.03 0.05 0.07 0.07 0.06 0.04 0.03 0.02 0.03 0.04 0.04 0.04 0.03 0.01 0.01 0.01 0.01 0.02 0.02 0.01 0.01 0.02 0.01 0.02 0.02 0.03 0.03 0.05 0.07 0.06 0.05 0.04 0.03 0.03
0.02 0.01 0.00 0.00 0.00 0.00 0.00 0.01 0.02 0.03 0.03 0.04 0.04 0.04 0.05 0.05 0.04 0.03 0.03 0.03 0.04 0.02 0.02 0.01 0.01 0.01 0.00 0.01 0.01 0.01 0.01 0.01 0.01 0.01 0.01 0.02 0.03 0.04 0.04 0.05 0.05 0.05 0.04
0.02 0.01 0.01 0.02 0.01 0.01 0.00 0.01 0.01 0.02 0.02 0.02 0.03 0.03 0.03 0.03 0.03 0.03 0.03 0.03 0.04 0.04 0.02 0.01 0.01 0.01 0.01 0.01 0.01 0.01 0.01 0.01 0.01 0.01 0.01 0.01 0.02 0.02 0.03 0.03 0.04 0.04 0.04
0.01 0.00 0.00 0.01 0.01 0.01 0.01 0.02 0.02 0.01 0.02 0.03 0.01 0.02 0.03 0.02 0.02 0.02 0.02 0.03 0.04 0.05 0.03 0.02 0.02 0.03 0.02 0.01 0.02 0.01 0.01 0.01 0.01 0.01 0.01 0.02 0.02 0.02 0.02 0.02 0.02 0.03 0.03
0.01 0.00 0.00 0.00 0.01 0.01 0.01 0.01 0.02 0.01 0.02 0.02 0.01 0.02 0.02 0.01 0.01 0.01 0.02 0.03 0.04 0.03 0.04 0.03 0.05 0.04 0.02 0.02 0.04 0.02 0.02 0.02 0.02 0.01 0.01 0.02 0.02 0.03 0.03 0.03 0.03 0.03 0.04
0.00 0.00 0.00 0.00 0.01 0.00 0.01 0.01 0.02 0.02 0.02 0.02 0.02 0.01 0.01 0.01 0.01 0.01 0.02 0.02 0.02 0.02 0.03 0.05 0.06 0.04 0.03 0.02 0.04 0.02 0.02 0.02 0.03 0.02 0.02 0.02 0.02 0.02 0.03 0.03 0.03 0.03 0.04
0.01 0.00 0.00 0.00 0.01 0.01 0.01 0.03 0.02 0.01 0.02 0.02 0.01 0.01 0.02 0.01 0.02 0.02 0.02 0.02 0.02 0.02 0.03 0.03 0.04 0.04 0.04 0.03 0.05 0.04 0.02 0.01 0.02 0.02 0.02 0.01 0.01 0.01 0.02 0.03 0.03 0.02 0.02
0.00 0.00 0.00 0.00 0.00 0.00 0.01 0.02 0.01 0.01 0.01 0.01 0.01 0.01 0.01 0.01 0.02 0.02 0.01 0.01 0.01 0.01 0.03 0.04 0.04 0.03 0.03 0.05 0.07 0.07 0.05 0.04 0.04 0.04 0.04 0.03 0.02 0.02 0.02 0.03 0.04 0.02 0.02
0.01 0.00 0.00 0.00 0.00 0.00 0.01 0.01 0.00 0.01 0.00 0.00 0.00 0.01 0.00 0.00 0.02 0.02 0.01 0.01 0.01 0.01 0.02 0.04 0.04 0.04 0.02 0.03 0.06 0.06 0.06 0.06 0.06 0.06 0.06 0.07 0.06 0.04 0.03 0.03 0.04 0.04 0.04
0.02 0.00 0.00 0.00 0.00 0.00 0.00 0.00 0.00 0.00 0.00 0.00 0.00 0.01 0.00 0.00 0.01 0.01 0.01 0.01 0.01 0.01 0.02 0.02 0.01 0.01 0.02 0.02 0.05 0.05 0.04 0.04 0.03 0.02 0.02 0.02 0.02 0.02 0.02 0.01 0.02 0.03 0.04
0.01 0.01 0.00 0.00 0.01 0.01 0.01 0.00 0.00 0.00 0.00 0.00 0.00 0.01 0.00 0.00 0.00 0.00 0.00 0.01 0.01 0.02 0.02 0.01 0.01 0.00 0.01 0.02 0.03 0.03 0.02 0.01 0.01 0.01 0.01 0.01 0.01 0.00 0.00 0.01 0.01 0.01 0.02
0.02 0.01 0.01 0.01 0.00 0.00 0.01 0.01 0.00 0.00 0.00 0.00 0.00 0.00 0.00 0.00 0.00 0.00 0.00 0.00 0.00 0.01 0.01 0.01 0.01 0.01 0.02 0.02 0.01 0.01 0.00 0.00 0.00 0.00 0.00 0.01 0.01 0.01 0.00 0.00 0.00 0.00 0.00
0.02 0.02 0.03 0.02 0.00 0.00 0.00 0.00 0.00 0.01 0.01 0.01 0.00 0.00 0.00 0.00 0.00 0.00 0.00 0.00 0.00 0.00 0.00 0.00 0.01 0.01 0.01 0.01 0.00 0.00 0.00 0.00 0.00 0.00 0.00 0.00 0.00 0.01 0.01 0.00 0.00 0.00 0.00
0.03 0.03 0.03 0.02 0.01 0.00 0.00 0.00 0.00 0.01 0.01 0.01 0.00 0.00 0.01 0.00 0.00 0.00 0.00 0.01 0.01 0.00 0.00 0.00 0.00 0.00 0.00 0.00 0.00 0.00 0.00 0.00 0.00 0.00 0.00 0.00 0.00 0.00 0.00 0.00 0.00 0.00 0.00
0.03 0.03 0.03 0.01 0.00 0.00 0.00 0.01 0.01 0.00 0.00 0.00 0.00 0.00 0.00 0.00 0.00 0.00 0.00 0.00 0.00 0.00 0.00 0.00 0.00 0.00 0.00 0.00 0.00 0.00 0.00 0.00 0.00 0.00 0.00 0.00 0.00 0.00 0.00 0.00 0.00 0.00 0.00
0.03 0.03 0.04 0.02 0.01 0.01 0.01 0.01 0.01 0.00 0.00 0.00 0.00 0.00 0.00 0.00 0.00 0.00 0.00 0.00 0.00 0.00 0.00 0.00 0.00 0.00 0.00 0.00 0.00 0.00 0.00 0.00 0.00 0.00 0.00 0.00 0.00 0.00 0.00 0.00 0.00 0.00 0.00
MSLP
1015.24 1015.43 1015.56 1015.65 1015.74 1015.87 1016.05 1016.27 1016.52 1016.74 1016.91 1017.00 1017.03 1017.02 1017.01 1017.06 1017.17 1017.37 1017.61 1017.84 1018.01 1018.07 1018.00 1017.81 1017.53 1017.23 1016.94 1016.70 1016.52 1016.38 1016.23 1016.05 1015.80 1015.48 1015.14 1014.80 1014.49 1014.22 1013.95 1013.57 1012.95 1011.96 1010.50
1015.06 1015.22 1015.34 1015.43 1015.54 1015.68 1015.88 1016.13 1016.41 1016.67 1016.90 1017.07 1017.18 1017.26 1017.33 1017.43 1017.58 1017.78 1017.99 1018.18 1018.31 1018.34 1018.26 1018.09 1017.84 1017.57 1017.33 1017.12 1016.95 1016.79 1016.62 1016.40 1016.13 1015.80 1015.47 1015.15 1014.88 1014.65 1014.38 1013.97 1013.28 1012.18 1010.57
1014.94 1015.08 1015.19 1015.30 1015.43 1015.62 1015.85 1016.14 1016.46 1016.78 1017.07 1017.30 1017.49 1017.64 1017.78 1017.92 1018.08 1018.25 1018.42 1018.55 1018.62 1018.60 1018.50 1018.33 1018.11 1017.90 1017.70 1017.53 1017.39 1017.25 1017.06 1016.83 1016.54 1016.21 1015.87 1015.58 1015.33 1015.12 1014.87 1014.47 1013.77 1012.66 1011.04
1014.93 1015.04 1015.16 1015.29 1015.46 1015.69 1015.97 1016.30 1016.67 1017.03 1017.37 1017.67 1017.92 1018.13 1018.31 1018.47 1018.62 1018.76 1018.87 1018.93 1018.93 1018.86 1018.73 1018.56 1018.38 1018.21 1018.07 1017.96 1017.86 1017.74 1017.57 1017.34 1017.04 1016.70 1016.37 1016.07 1015.84 1015.64 1015.41 1015.05 1014.41 1013.37 1011.86
1015.03 1015.12 1015.24 1015.39 1015.60 1015.87 1016.20 1016.57 1016.96 1017.36 1017.74 1018.08 1018.38 1018.63 1018.85 1019.03 1019.18 1019.29 1019.34 1019.34 1019.28 1019.16 1019.00 1018.83 1018.68 1018.56 1018.48 1018.43 1018.38 1018.30 1018.16 1017.93 1017.63 1017.29 1016.95 1016.65 1016.41 1016.21 1016.01 1015.69 1015.15 1014.26 1012.96
1015.21 1015.28 1015.40 1015.57 1015.81 1016.11 1016.46 1016.85 1017.26 1017.68 1018.08 1018.45 1018.79 1019.08 1019.33 1019.54 1019.70 1019.80 1019.83 1019.79 1019.69 1019.54 1019.37 1019.20 1019.07 1018.99 1018.97 1018.97 1018.98 1018.94 1018.82 1018.62 1018.32 1017.98 1017.62 1017.30 1017.04 1016.84 1016.64 1016.38 1015.94 1015.24 1014.20
1015.44 1015.49 1015.60 1015.78 1016.03 1016.34 1016.70 1017.09 1017.51 1017.92 1018.33 1018.71 1019.08 1019.41 1019.71 1019.96 1020.16 1020.28 1020.32 1020.29 1020.18 1020.02 1019.85 1019.70 1019.59 1019.55 1019.56 1019.61 1019.65 1019.65 1019.57 1019.38 1019.10 1018.75 1018.38 1018.03 1017.74 1017.51 1017.32 1017.09 1016.75 1016.22 1015.44
1015.70 1015.71 1015.81 1015.99 1016.23 1016.54 1016.88 1017.26 1017.65 1018.04 1018.44 1018.83 1019.21 1019.59 1019.94 1020.26 1020.52 1020.70 1020.80 1020.81 1020.74 1020.62 1020.47 1020.34 1020.26 1020.23 1020.27 1020.34 1020.41 1020.43 1020.37 1020.21 1019.94 1019.59 1019.21 1018.84 1018.52 1018.25 1018.03 1017.81 1017.54 1017.15 1016.59
1015.95 1015.94 1016.01 1016.17 1016.39 1016.67 1016.99 1017.33 1017.68 1018.04 1018.41 1018.80 1019.20 1019.61 1020.02 1020.42 1020.77 1021.05 1021.24 1021.33 1021.34 1021.28 1021.18 1021.09 1021.03 1021.02 1021.06 1021.14 1021.21 1021.25 1021.20 1021.06 1020.81 1020.48 1020.10 1019.71 1019.36 1019.05 1018.80 1018.57 1018.33 1018.02 1017.61
1016.19 1016.15 1016.20 1016.32 1016.52 1016.77 1017.04 1017.33 1017.64 1017.95 1018.29 1018.65 1019.06 1019.50 1019.96 1020.43 1020.88 1021.27 1021.58 1021.79 1021.90 1021.93 1021.91 1021.87 1021.84 1021.85 1021.89 1021.96 1022.03 1022.06 1022.02 1021.89 1021.67 1021.36 1021.00 1020.62 1020.26 1019.93 1019.64 1019.39 1019.14 1018.87 1018.54
1016.41 1016.35 1016.37 1016.47 1016.63 1016.84 1017.07 1017.32 1017.57 1017.83 1018.12 1018.45 1018.85 1019.29 1019.80 1020.33 1020.86 1021.35 1021.78 1022.12 1022.35 1022.49 1022.57 1022.60 1022.61 1022.64 1022.68 1022.74 1022.79 1022.82 1022.79 1022.68 1022.49 1022.23 1021.91 1021.56 1021.21 1020.87 1020.57 1020.29 1020.03 1019.75 1019.45
1016.60 1016.53 1016.54 1016.61 1016.75 1016.92 1017.12 1017.31 1017.52 1017.73 1017.97 1018.26 1018.61 1019.05 1019.56 1020.12 1020.71 1021.29 1021.82 1022.27 1022.63 1022.89 1023.07 1023.19 1023.27 1023.33 1023.38 1023.44 1023.49 1023.51 1023.48 1023.40 1023.26 1023.05 1022.79 1022.49 1022.19 1021.88 1021.59 1021.30 1021.02 1020.72 1020.42
1016.78 1016.70 1016.69 1016.76 1016.87 1017.03 1017.19 1017.36 1017.52 1017.68 1017.87 1018.10 1018.41 1018.81 1019.29 1019.85 1020.46 1021.09 1021.69 1022.24 1022.72 1023.10 1023.39 1023.60 1023.76 1023.87 1023.96 1024.03 1024.08 1024.11 1024.10 1024.05 1023.96 1023.81 1023.63 1023.41 1023.17 1022.92 1022.66 1022.39 1022.10 1021.80 1021.47
1016.92 1016.85 1016.84 1016.90 1017.01 1017.16 1017.31 1017.46 1017.59 1017.72 1017.86 1018.04 1018.29 1018.62 1019.05 1019.57 1020.16 1020.80 1021.45 1022.06 1022.62 1023.11 1023.51 1023.83 1024.08 1024.26 1024.41 1024.51 1024.59 1024.63 1024.65 1024.64 1024.59 1024.51 1024.41 1024.28 1024.12 1023.95 1023.75 1023.52 1023.25 1022.95 1022.62
1017.02 1016.96 1016.97 1017.04 1017.16 1017.31 1017.46 1017.61 1017.73 1017.84 1017.95 1018.08 1018.27 1018.53 1018.89 1019.35 1019.89 1020.50 1021.15 1021.80 1022.42 1022.98 1023.48 1023.90 1024.25 1024.52 1024.73 1024.89 1025.01 1025.08 1025.13 1025.16 1025.16 1025.14 1025.11 1025.06 1025.00 1024.90 1024.78 1024.61 1024.38 1024.11 1023.79
1017.09 1017.05 1017.08 1017.16 1017.30 1017.47 1017.65 1017.81 1017.94 1018.05 1018.14 1018.25 1018.39 1018.59 1018.88 1019.26 1019.73 1020.29 1020.90 1021.54 1022.19 1022.81 1023.37 1023.88 1024.31 1024.67 1024.96 1025.18 1025.35 1025.47 1025.55 1025.61 1025.65 1025.69 1025.72 1025.74 1025.75 1025.73 1025.68 1025.58 1025.41 1025.19 1024.89
1017.13 1017.12 1017.18 1017.29 1017.46 1017.66 1017.87 1018.06 1018.22 1018.35 1018.45 1018.54 1018.65 1018.81 1019.04 1019.35 1019.75 1020.23 1020.79 1021.40 1022.03 1022.66 1023.26 1023.83 1024.33 1024.75 1025.11 1025.39 1025.61 1025.77 1025.89 1025.98 1026.06 1026.13 1026.20 1026.27 1026.34 1026.39 1026.40 1026.36 1026.26 1026.09 1025.85
1017.18 1017.21 1017.30 1017.45 1017.65 1017.88 1018.12 1018.35 1018.55 1018.71 1018.84 1018.95 1019.06 1019.20 1019.39 1019.64 1019.97 1020.38 1020.87 1021.41 1022.00 1022.61 1023.21 1023.79 1024.32 1024.80 1025.20 1025.53 1025.79 1026.00 1026.15 1026.27 1026.37 1026.46 1026.56 1026.66 1026.76 1026.85 1026.92 1026.93 1026.89 1026.77 1026.59
1017.27 1017.34 1017.47 1017.65 1017.89 1018.15 1018.42 1018.68 1018.92 1019.12 1019.29 1019.44 1019.57 1019.72 1019.89 1020.11 1020.39 1020.73 1021.15 1021.62 1022.13 1022.68 1023.25 1023.80 1024.33 1024.81 1025.24 1025.60 1025.89 1026.13 1026.31 1026.45 1026.57 1026.69 1026.80 1026.92 1027.04 1027.15 1027.24 1027.30 1027.30 1027.23 1027.10
1017.42 1017.54 1017.71 1017.93 1018.18 1018.46 1018.76 1019.04 1019.31 1019.55 1019.77 1019.96 1020.13 1020.31 1020.49 1020.71 1020.96 1021.25 1021.59 1021.98 1022.41 1022.88 1023.37 1023.86 1024.35 1024.81 1025.23 1025.60 1025.91 1026.17 1026.38 1026.55 1026.69 1026.82 1026.94 1027.07 1027.20 1027.32 1027.43 1027.50 1027.53 1027.51 1027.42
1017.63 1017.81 1018.02 1018.26 1018.53 1018.82 1019.12 1019.42 1019.70 1019.97 1020.23 1020.46 1020.69 1020.90 1021.12 1021.35 1021.59 1021.85 1022.13 1022.45 1022.79 1023.17 1023.56 1023.97 1024.39 1024.80 1025.19 1025.55 1025.87 1026.15 1026.38 1026.58 1026.74 1026.89 1027.03 1027.17 1027.30 1027.42 1027.53 1027.62 1027.66 1027.66 1027.61
1017.90 1018.13 1018.37 1018.64 1018.92 1019.20 1019.49 1019.78 1020.06 1020.35 1020.62 1020.90 1021.17 1021.43 1021.69 1021.95 1022.20 1022.44 1022.69 1022.95 1023.21 1023.50 1023.80 1024.13 1024.47 1024.82 1025.17 1025.50 1025.82 1026.10 1026.36 1026.59 1026.78 1026.96 1027.11 1027.26 1027.40 1027.52 1027.63 1027.71 1027.76 1027.77 1027.73
1018.18 1018.46 1018.74 1019.02 1019.29 1019.56 1019.83 1020.09 1020.36 1020.64 1020.93 1021.23 1021.53 1021.85 1022.15 1022.44 1022.72 1022.97 1023.20 1023.42 1023.63 1023.85 1024.07 1024.32 1024.58 1024.87 1025.18 1025.49 1025.80 1026.09 1026.37 1026.62 1026.85 1027.05 1027.23 1027.39 1027.53 1027.65 1027.74 1027.82 1027.86 1027.86 1027.83
1018.43 1018.75 1019.05 1019.34 1019.61 1019.86 1020.10 1020.33 1020.58 1020.84 1021.13 1021.44 1021.77 1022.12 1022.47 1022.80 1023.11 1023.38 1023.62 1023.82 1024.01 1024.18 1024.36 1024.55 1024.76 1025.01 1025.28 1025.56 1025.86 1026.17 1026.46 1026.73 1026.98 1027.20 1027.40 1027.56 1027.70 1027.82 1027.90 1027.96 1027.99 1027.98 1027.94
1018.60 1018.94 1019.27 1019.57 1019.83 1020.06 1020.28 1020.49 1020.71 1020.96 1021.24 1021.55 1021.90 1022.28 1022.65 1023.02 1023.37 1023.67 1023.93 1024.15 1024.33 1024.49 1024.65 1024.82 1025.00 1025.22 1025.47 1025.74 1026.03 1026.33 1026.63 1026.91 1027.17 1027.40 1027.61 1027.77 1027.91 1028.02 1028.09 1028.13 1028.14 1028.11 1028.06
1018.63 1019.01 1019.35 1019.65 1019.92 1020.15 1020.36 1020.56 1020.77 1021.01 1021.29 1021.61 1021.97 1022.36 1022.76 1023.15 1023.53 1023.86 1024.15 1024.39 1024.59 1024.77 1024.94 1025.11 1025.29 1025.50 1025.74 1026.01 1026.29 1026.58 1026.87 1027.15 1027.41 1027.63 1027.83 1027.99 1028.12 1028.21 1028.26 1028.29 1028.27 1028.23 1028.17
Thickness
5729 5728 5727 5725 5725 5724 5723 5723 5723 5722 5722 5722 5722 5721 5720 5721 5719 5718 5716 5717 5718 5720 5722 5723 5725 5727 5728 5729 5731 5732 5733 5735 5737 5739 5740 5741 5743 5744 5746 5747 5749 5751 5753
5729 5727 5726 5724 5723 5723 5723 5722 5721 5719 5718 5718 5718 5719 5719 5718 5717 5715 5714 5713 5714 5716 5718 5719 5721 5722 5724 5725 5727 5728 5730 5731 5733 5735 5736 5738 5739 5741 5742 5744 5745 5747 5749
5728 5726 5725 5723 5723 5722 5721 5720 5719 5717 5716 5716 5715 5715 5714 5714 5714 5713 5712 5711 5712 5713 5714 5715 5716 5718 5719 5721 5723 5724 5726 5727 5729 5731 5733 5734 5736 5737 5739 5740 5741 5743 5744
5727 5725 5723 5721 5721 5720 5719 5718 5716 5714 5712 5711 5710 5711 5711 5711 5710 5710 5710 5710 5710 5710 5710 5711 5712 5714 5715 5717 5718 5720 5722 5724 5725 5727 5729 5731 5732 5733 5735 5736 5737 5739 5740
5725 5723 5721 5720 5720 5718 5717 5716 5714 5712 5709 5708 5708 5707 5707 5707 5708 5708 5708 5708 5707 5707 5707 5708 5708 5710 5711 5712 5714 5716 5718 5720 5722 5724 5725 5727 5729 5730 5731 5732 5733 5734 5736
5723 5721 5720 5719 5718 5716 5714 5713 5711 5710 5709 5708 5708 5705 5704 5704 5705 5704 5704 5704 5704 5705 5705 5705 5706 5706 5707 5708 5709 5712 5714 5717 5719 5720 5722 5723 5725 5726 5727 5728 5729 5730 5731
5722 5720 5719 5718 5716 5715 5713 5712 5710 5708 5707 5707 5703 5699 5700 5701 5701 5700 5701 5701 5701 5702 5702 5703 5703 5703 5703 5703 5705 5707 5710 5713 5715 5717 5718 5720 5722 5723 5724 5724 5725 5725 5726
5721 5720 5718 5716 5715 5714 5712 5711 5709 5707 5706 5707 5702 5696 5690 5691 5694 5698 5698 5697 5698 5699 5699 5699 5699 5699 5699 5699 5700 5703 5705 5708 5711 5713 5715 5717 5719 5721 5721 5720 5720 5720 5721
5719 5719 5718 5716 5715 5713 5711 5710 5709 5706 5703 5705 5706 5699 5691 5685 5688 5691 5694 5695 5695 5695 5696 5696 5696 5695 5695 5695 5696 5698 5700 5703 5706 5708 5711 5713 5715 5716 5716 5716 5715 5715 5716
5718 5718 5717 5716 5714 5713 5711 5711 5710 5708 5705 5702 5704 5705 5703 5699 5690 5685 5688 5691 5693 5692 5693 5693 5692 5691 5691 5691 5692 5693 5696 5698 5701 5703 5706 5708 5710 5711 5710 5710 5709 5710 5710
5717 5716 5716 5715 5714 5713 5712 5711 5710 5708 5707 5704 5703 5703 5702 5701 5699 5690 5683 5685 5688 5689 5690 5689 5688 5688 5688 5688 5689 5690 5692 5694 5696 5698 5700 5702 5704 5705 5704 5704 5704 5704 5704
5716 5715 5715 5715 5714 5713 5712 5711 5710 5709 5708 5706 5705 5704 5701 5698 5695 5693 5686 5684 5683 5685 5687 5687 5686 5685 5685 5685 5686 5687 5689 5690 5692 5693 5695 5697 5698 5698 5699 5699 5699 5699 5699
5713 5714 5715 5714 5714 5713 5713 5712 5710 5709 5708 5706 5705 5704 5702 5701 5700 5697 5690 5685 5683 5683 5685 5684 5684 5684 5683 5683 5683 5684 5686 5687 5688 5689 5690 5691 5692 5692 5693 5693 5693 5692 5692
5715 5715 5715 5714 5714 5714 5713 5712 5710 5710 5709 5707 5706 5704 5702 5701 5701 5697 5692 5687 5681 5680 5681 5680 5682 5682 5681 5680 5680 5681 5683 5684 5685 5685 5686 5686 5687 5687 5686 5686 5686 5685 5685
5716 5716 5715 5713 5713 5713 5712 5711 5709 5708 5708 5706 5704 5703 5701 5700 5699 5697 5695 5691 5684 5676 5674 5678 5678 5680 5679 5678 5678 5679 5679 5680 5681 5681 5682 5682 5681 5681 5681 5680 5679 5679 5678
5717 5716 5715 5713 5712 5712 5711 5710 5708 5707 5705 5703 5702 5701 5699 5698 5697 5696 5694 5692 5689 5682 5676 5677 5677 5678 5677 5677 5676 5676 5676 5676 5677 5677 5677 5677 5676 5676 5675 5674 5673 5672 5671
5716 5715 5714 5713 5711 5710 5709 5707 5706 5705 5704 5702 5701 5699 5697 5696 5694 5693 5691 5690 5687 5684 5676 5675 5676 5676 5675 5674 5673 5673 5672 5672 5672 5672 5672 5671 5671 5670 5669 5668 5667 5666 5665
5715 5715 5714 5712 5711 5709 5708 5705 5704 5703 5702 5700 5699 5697 5695 5694 5692 5690 5688 5686 5684 5683 5678 5672 5671 5672 5672 5672 5671 5670 5669 5669 5668 5668 5668 5667 5666 5665 5664 5663 5661 5660 5658
5713 5713 5712 5710 5708 5707 5706 5705 5703 5702 5700 5699 5698 5695 5693 5692 5689 5687 5685 5683 5682 5681 5678 5673 5669 5669 5668 5668 5667 5666 5666 5665 5665 5664 5663 5662 5661 5660 5658 5657 5656 5654 5652
5710 5710 5710 5708 5707 5706 5705 5703 5702 5700 5698 5697 5695 5693 5692 5689 5687 5685 5683 5681 5680 5677 5674 5670 5667 5665 5664 5664 5662 5660 5659 5659 5660 5660 5659 5657 5656 5654 5653 5652 5650 5648 5646
5708 5707 5706 5706 5705 5703 5702 5700 5699 5698 5696 5694 5692 5691 5689 5687 5685 5683 5681 5678 5676 5673 5670 5666 5663 5661 5659 5658 5656 5656 5654 5654 5655 5656 5654 5653 5651 5650 5647 5646 5644 5642 5640
5705 5704 5703 5702 5700 5699 5698 5697 5696 5695 5693 5691 5689 5688 5686 5684 5682 5680 5678 5675 5673 5669 5666 5663 5660 5657 5656 5656 5655 5654 5651 5648 5646 5650 5649 5647 5647 5644 5643 5641 5639 5636 5634
5701 5699 5698 5697 5695 5694 5694 5693 5693 5691 5690 5688 5687 5685 5684 5681 5679 5676 5673 5671 5669 5667 5665 5662 5657 5656 5655 5654 5652 5649 5647 5645 5642 5644 5643 5640 5641 5639 5638 5636 5634 5631 5628
5697 5695 5694 5693 5692 5691 5690 5689 5689 5687 5685 5685 5683 5682 5679 5677 5675 5672 5670 5666 5664 5663 5662 5660 5657 5655 5654 5653 5650 5647 5645 5643 5641 5640 5638 5633 5634 5633 5633 5630 5628 5625 5622
5694 5693 5691 5690 5688 5687 5687 5686 5684 5682 5680 5679 5679 5678 5676 5673 5672 5670 5666 5662 5660 5658 5658 5657 5655 5653 5651 5649 5647 5644 5640 5636 5633 5633 5633 5629 5628 5627 5626 5624 5621 5618 5615
5692 5691 5689 5687 5686 5684 5683 5682 5680 5678 5676 5674 5673 5673 5671 5669 5667 5665 5661 5658 5654 5654 5653 5652 5650 5648 5646 5644 5642 5639 5635 5630 5627 5625 5627 5624 5621 5619 5616 5616 5614 5610 5607